• en Belgique
  • Liste des pays
  • À 7 jours
  • Température de l'eau
  • Carte satellitaire
  • Carte météo
  • Widgets météo
  • user-avatar
    Se connecter

    Météo par heure à Townsville

    Ce jour, 26 Juillet, Mercredi

    Heure Température Précipitation Vent Pression Humidité
    00:00 +16°C° 0 mm 5 m/s 758 mmHg 90%
    01:00 +16°C° 0 mm 5 m/s 758 mmHg 91%
    02:00 +16°C° 0 mm 5 m/s 758 mmHg 92%
    03:00 +15°C° 0 mm 4 m/s 758 mmHg 92%
    04:00 +15°C° 0 mm 4 m/s 757 mmHg 93%
    05:00 +15°C° 0 mm 4 m/s 757 mmHg 93%
    06:00 +14°C° 0 mm 4 m/s 758 mmHg 93%
    07:00 +14°C° 0 mm 4 m/s 758 mmHg 93%
    08:00 +18°C° 0 mm 4 m/s 758 mmHg 81%
    09:00 +21°C° 0 mm 5 m/s 758 mmHg 70%
    10:00 +23°C° 0 mm 5 m/s 759 mmHg 58%
    11:00 +25°C° 0 mm 5 m/s 758 mmHg 54%
    12:00 +26°C° 0 mm 5 m/s 758 mmHg 49%
    13:00 +28°C° 0 mm 5 m/s 757 mmHg 45%
    14:00 +27°C° 0 mm 5 m/s 757 mmHg 48%
    15:00 +26°C° 0 mm 5 m/s 757 mmHg 51%
    16:00 +26°C° 0 mm 6 m/s 757 mmHg 54%
    17:00 +23°C° 0 mm 5 m/s 757 mmHg 62%
    18:00 +21°C° 0 mm 5 m/s 757 mmHg 69%
    19:00 +19°C° 0 mm 5 m/s 757 mmHg 76%
    20:00 +19°C° 0 mm 5 m/s 758 mmHg 79%
    21:00 +19°C° 0 mm 5 m/s 758 mmHg 81%
    22:00 +17°C° 0 mm 5 m/s 759 mmHg 83%
    23:00 +17°C° 0 mm 5 m/s 759 mmHg 86%

    Demain, 27 Juillet, Jeudi

    Heure Température Précipitation Vent Pression Humidité
    00:00 +16°C° 0 mm 5 m/s 759 mmHg 89%
    01:00 +16°C° 0 mm 5 m/s 758 mmHg 91%
    02:00 +15°C° 0 mm 5 m/s 758 mmHg 92%
    03:00 +15°C° 0 mm 4 m/s 758 mmHg 93%
    04:00 +14°C° 0 mm 4 m/s 758 mmHg 93%
    05:00 +14°C° 0 mm 5 m/s 758 mmHg 93%
    06:00 +14°C° 0 mm 5 m/s 758 mmHg 93%
    07:00 +14°C° 0 mm 5 m/s 758 mmHg 93%
    08:00 +16°C° 0 mm 5 m/s 759 mmHg 80%
    09:00 +20°C° 0 mm 6 m/s 759 mmHg 68%
    10:00 +23°C° 0 mm 6 m/s 760 mmHg 55%
    11:00 +24°C° 0 mm 6 m/s 759 mmHg 50%
    12:00 +26°C° 0 mm 6 m/s 759 mmHg 45%
    13:00 +28°C° 0 mm 6 m/s 758 mmHg 40%
    14:00 +27°C° 0 mm 7 m/s 758 mmHg 42%
    15:00 +27°C° 0 mm 7 m/s 757 mmHg 44%
    16:00 +26°C° 0 mm 7 m/s 757 mmHg 46%
    17:00 +23°C° 0 mm 7 m/s 757 mmHg 55%
    18:00 +21°C° 0 mm 6 m/s 758 mmHg 64%
    19:00 +19°C° 0 mm 6 m/s 758 mmHg 72%
    20:00 +19°C° 0 mm 5 m/s 759 mmHg 76%
    21:00 +17°C° 0 mm 5 m/s 759 mmHg 79%
    22:00 +16°C° 0 mm 5 m/s 760 mmHg 82%
    23:00 +16°C° 0 mm 5 m/s 760 mmHg 84%

    Après-demain, 28 Juillet, Vendredi

    Heure Température Précipitation Vent Pression Humidité
    00:00 +15°C° 0 mm 5 m/s 759 mmHg 85%
    01:00 +15°C° 0 mm 5 m/s 759 mmHg 87%
    02:00 +15°C° 0 mm 5 m/s 759 mmHg 89%
    03:00 +14°C° 0 mm 4 m/s 759 mmHg 90%
    04:00 +14°C° 0 mm 4 m/s 758 mmHg 91%
    05:00 +14°C° 0 mm 4 m/s 759 mmHg 92%
    06:00 +14°C° 0 mm 4 m/s 759 mmHg 93%
    07:00 +14°C° 0 mm 4 m/s 759 mmHg 94%
    08:00 +17°C° 0 mm 5 m/s 760 mmHg 82%
    09:00 +20°C° 0 mm 5 m/s 760 mmHg 70%
    10:00 +23°C° 0 mm 6 m/s 760 mmHg 58%
    11:00 +24°C° 0 mm 6 m/s 760 mmHg 54%
    12:00 +27°C° 0 mm 6 m/s 759 mmHg 50%
    13:00 +28°C° 0 mm 6 m/s 758 mmHg 45%
    14:00 +27°C° 0 mm 6 m/s 758 mmHg 46%
    15:00 +27°C° 0 mm 6 m/s 758 mmHg 47%
    16:00 +26°C° 0 mm 6 m/s 757 mmHg 48%
    17:00 +23°C° 0 mm 6 m/s 758 mmHg 57%
    18:00 +22°C° 0 mm 5 m/s 758 mmHg 66%
    19:00 +20°C° 0 mm 5 m/s 759 mmHg 75%
    20:00 +19°C° 0 mm 5 m/s 759 mmHg 79%
    21:00 +19°C° 0 mm 5 m/s 759 mmHg 82%
    22:00 +17°C° 0 mm 5 m/s 760 mmHg 86%
    23:00 +17°C° 0 mm 5 m/s 759 mmHg 89%

    29 Juillet, Samedi

    Heure Température Précipitation Vent Pression Humidité
    00:00 +16°C° 0 mm 5 m/s 759 mmHg 91%
    01:00 +17°C° 0 mm 4 m/s 759 mmHg 93%
    02:00 +17°C° 0 mm 4 m/s 759 mmHg 93%
    03:00 +17°C° 0 mm 4 m/s 758 mmHg 94%
    04:00 +15°C° 0 mm 4 m/s 758 mmHg 94%
    05:00 +15°C° 0 mm 4 m/s 758 mmHg 95%
    06:00 +15°C° 0 mm 4 m/s 759 mmHg 95%
    07:00 +15°C° 0 mm 4 m/s 759 mmHg 95%
    08:00 +19°C° 0 mm 4 m/s 759 mmHg 83%
    09:00 +21°C° 0 mm 5 m/s 759 mmHg 70%
    10:00 +25°C° 0 mm 5 m/s 760 mmHg 58%
    11:00 +26°C° 0 mm 5 m/s 759 mmHg 54%
    12:00 +27°C° 0 mm 6 m/s 758 mmHg 50%
    13:00 +28°C° 0 mm 6 m/s 757 mmHg 45%
    14:00 +27°C° 0 mm 6 m/s 757 mmHg 46%
    15:00 +27°C° 0 mm 6 m/s 757 mmHg 46%
    16:00 +27°C° 0 mm 6 m/s 756 mmHg 47%
    17:00 +25°C° 0 mm 5 m/s 757 mmHg 56%
    18:00 +21°C° 0 mm 5 m/s 757 mmHg 65%
    19:00 +19°C° 0 mm 5 m/s 757 mmHg 73%
    20:00 +19°C° 0 mm 5 m/s 758 mmHg 77%
    21:00 +17°C° 0 mm 5 m/s 758 mmHg 81%
    22:00 +17°C° 0 mm 5 m/s 759 mmHg 85%
    23:00 +17°C° 0 mm 4 m/s 758 mmHg 88%

    30 Juillet, Dimanche

    Heure Température Précipitation Vent Pression Humidité
    00:00 +17°C° 0 mm 4 m/s 758 mmHg 90%
    01:00 +15°C° 0 mm 4 m/s 758 mmHg 93%
    02:00 +15°C° 0 mm 4 m/s 757 mmHg 94%
    03:00 +15°C° 0 mm 4 m/s 757 mmHg 94%
    04:00 +15°C° 0 mm 4 m/s 757 mmHg 95%
    05:00 +15°C° 0 mm 4 m/s 757 mmHg 95%
    06:00 +15°C° 0 mm 4 m/s 758 mmHg 96%
    07:00 +15°C° 0 mm 4 m/s 758 mmHg 96%
    08:00 +19°C° 0,1 mm 5 m/s 758 mmHg 86%
    09:00 +21°C° 0,1 mm 5 m/s 758 mmHg 75%
    10:00 +25°C° 0,1 mm 5 m/s 758 mmHg 65%
    11:00 +26°C° 0,1 mm 5 m/s 758 mmHg 61%
    12:00 +27°C° 0,1 mm 5 m/s 757 mmHg 58%
    13:00 +28°C° 0,1 mm 5 m/s 756 mmHg 54%
    14:00 +27°C° 0 mm 5 m/s 756 mmHg 56%
    15:00 +27°C° 0 mm 5 m/s 756 mmHg 58%
    16:00 +27°C° 0 mm 5 m/s 755 mmHg 60%
    17:00 +25°C° 0,1 mm 5 m/s 756 mmHg 70%
    18:00 +22°C° 0,1 mm 4 m/s 756 mmHg 80%
    19:00 +20°C° 0,1 mm 4 m/s 757 mmHg 90%
    20:00 +20°C° 0 mm 4 m/s 757 mmHg 91%
    21:00 +19°C° 0 mm 4 m/s 758 mmHg 92%
    22:00 +19°C° 0 mm 3 m/s 758 mmHg 94%
    23:00 +19°C° 0,1 mm 3 m/s 758 mmHg 94%

    31 Juillet, Lundi

    Heure Température Précipitation Vent Pression Humidité
    00:00 +19°C° 0,1 mm 3 m/s 757 mmHg 95%
    01:00 +19°C° 0,1 mm 3 m/s 757 mmHg 95%
    02:00 +18°C° 0,1 mm 3 m/s 757 mmHg 95%
    03:00 +18°C° 0,1 mm 3 m/s 757 mmHg 96%
    04:00 +18°C° 0,1 mm 2 m/s 757 mmHg 96%
    05:00 +18°C° 0 mm 2 m/s 757 mmHg 97%
    06:00 +18°C° 0 mm 2 m/s 758 mmHg 97%
    07:00 +17°C° 0 mm 2 m/s 758 mmHg 98%
    08:00 +20°C° 0 mm 2 m/s 758 mmHg 86%
    09:00 +24°C° 0 mm 2 m/s 758 mmHg 74%
    10:00 +26°C° 0 mm 2 m/s 758 mmHg 62%
    11:00 +27°C° 0 mm 2 m/s 758 mmHg 55%
    12:00 +29°C° 0 mm 3 m/s 757 mmHg 47%
    13:00 +30°C° 0 mm 3 m/s 756 mmHg 39%
    14:00 +30°C° 0 mm 3 m/s 756 mmHg 41%
    15:00 +29°C° 0 mm 3 m/s 755 mmHg 44%
    16:00 +29°C° 0 mm 4 m/s 755 mmHg 47%
    17:00 +26°C° 0 mm 3 m/s 756 mmHg 59%
    18:00 +24°C° 0 mm 3 m/s 756 mmHg 72%
    19:00 +21°C° 0 mm 3 m/s 757 mmHg 85%
    20:00 +20°C° 0 mm 2 m/s 757 mmHg 88%
    21:00 +20°C° 0 mm 2 m/s 757 mmHg 92%
    22:00 +19°C° 0 mm 2 m/s 758 mmHg 95%
    23:00 +19°C° 0 mm 2 m/s 757 mmHg 96%
    Voir plus